This demonstration page uses our WeatherBlox Daily Observations layout. Learn more.

Left ArrowRight Arrow

39.92423, -83.80882

Hourly Observations for February 23, 2016

Temp ( °F °C ) Dew Point ( °F °C ) Humidity (%) Winds ( mph kmh ) Pressure ( in mb ) Visibility ( mi km ) Precip ( " mm )
12:56 am 00:56 Clear 29 -1.6 26 -3.3 88 88 NE 10 17 30.08 1019 10 16 N/A
1:56 am 01:56 Clear 29 -1.6 25 -3.8 85 85 NE 10 17 30.08 1019 10 16 N/A
2:56 am 02:56 Clear 28 -2.2 24 -4.4 85 85 NE 10 17 30.07 1018 10 16 N/A
3:56 am 03:56 Clear 28 -2.2 24 -4.4 85 85 NE 10 17 30.07 1018 10 16 N/A
4:56 am 04:56 Clear 28 -2.2 23 -5 81 81 NE 10 17 30.06 1018 10 16 N/A
5:56 am 05:56 Clear 28 -2.2 23 -5 81 81 NE 10 17 30.06 1018 10 16 N/A
6:56 am 06:56 Clear 27 -2.7 22 -5.5 81 81 ENE 10 17 30.06 1018 10 16 N/A
7:56 am 07:56 Sunny 30 -1.1 23 -5 75 75 ENE 13 20 30.05 1018 10 16 N/A
8:56 am 08:56 Sunny 35 1.6 25 -3.8 68 68 NE 10 17 30.07 1018 10 16 N/A
9:56 am 09:56 Sunny 39 3.8 26 -3.3 60 60 NE 13 20 30.08 1019 10 16 N/A
10:56 am 10:56 Sunny 44 6.6 29 -1.6 56 56 NE 10 17 30.07 1018 10 16 N/A
11:56 am 11:56 Sunny 49 9.4 33 0.5 54 54 ENE 15 24 30.04 1017 10 16 N/A
12:56 pm 12:56 Sunny 52 11.1 35 1.6 52 52 NE 13 20 30.00 1016 10 16 N/A
1:56 pm 13:56 Sunny 54 12.2 37 2.7 53 53 ENE 13 20 29.98 1015 10 16 N/A
2:56 pm 14:56 Sunny 56 13.3 38 3.3 51 51 NE 14 22 29.96 1015 10 16 N/A
3:56 pm 15:56 Sunny 56 13.3 38 3.3 51 51 NE 15 24 29.94 1014 10 16 N/A
4:56 pm 16:56 Sunny 55 12.7 38 3.3 53 53 NE 14 22 29.92 1013 10 16 N/A
5:56 pm 17:56 Sunny 49 9.4 37 2.7 63 63 NE 13 20 29.93 1013 10 16 N/A
6:56 pm 18:56 Partly Cloudy 46 7.7 36 2.2 68 68 NNE 15 24 29.92 1013 10 16 N/A
7:56 pm 19:56 Cloudy with Light Rain 43 6.1 34 1.1 71 71 NE 13 20 29.92 1013 10 16 N/A
8:56 pm 20:56 Partly Cloudy 40 4.4 33 0.5 76 76 NNE 12 19 29.88 1012 10 16 N/A
9:56 pm 21:56 Mostly Cloudy 39 3.8 33 0.5 79 79 NE 14 22 29.86 1011 10 16 N/A
10:56 pm 22:56 Cloudy 39 3.8 33 0.5 79 79 NE 12 19 29.83 1010 10 16 N/A
11:56 pm 23:56 Clear 38 3.3 33 0.5 82 82 NE 14 22 29.77 1008 10 16 N/A

Powered by AerisWeather